DG3OBU-6 Weather Reports


time (UTC)temp
C
wind
direction
speed
KPH
gust
KPH
rain 1hr
cm
rain 24hr
cm
rain mn
cm
humidity
%
barometer
mb
20260506165503 8 341 0.0 0.0 0.13 3.94 0.00 89 1006.6
20260506165003 9 15 0.0 0.0 0.13 3.94 0.00 90 1006.6
20260506164502 8 329 0.0 0.0 0.13 3.91 0.00 89 1006.6
20260506164002 9 15 0.0 0.0 0.13 3.91 0.00 90 1006.6
20260506163502 9 50 0.0 0.0 0.15 3.89 0.00 90 1006.6
20260506163002 9 356 0.0 0.0 0.20 3.89 0.00 90 1006.5
20260506162502 9 3 0.0 0.0 0.23 3.86 0.00 90 1006.5
20260506162002 9 27 0.0 0.0 0.30 3.86 0.00 90 1006.5
20260506161502 9 18 0.0 0.0 0.46 3.84 0.00 90 1006.5
20260506161002 8 11 0.0 0.0 0.41 3.78 0.00 90 1006.5
20260506160502 8 340 9.7 0.0 0.43 3.76 0.00 90 1006.5
20260506160002 8 40 0.0 0.0 0.69 3.73 0.00 90 1006.5
20260506155502 9 3 0.0 0.0 0.33 3.68 0.00 90 1006.6
20260506155002 9 2 0.0 0.0 0.18 3.66 0.00 90 1006.6
20260506154502 9 2 0.0 0.0 0.36 3.63 0.00 90 1006.6
20260506154002 9 17 0.0 0.0 0.18 3.61 0.00 90 1006.7
20260506153502 9 21 0.0 0.0 0.10 3.58 0.00 90 1006.6
20260506153003 9 18 4.8 0.0 0.10 3.58 0.00 90 1006.6
20260506152503 9 345 0.0 0.0 0.00 3.56 0.00 90 1006.6
20260506152003 9 32 0.0 0.0 0.00 3.56 0.00 90 1006.6
20260506151503 9 59 0.0 0.0 0.00 3.56 0.00 90 1006.6
20260506151003 9 302 0.0 0.0 0.00 3.53 0.00 90 1006.6
20260506150503 9 232 0.0 0.0 0.00 3.53 0.00 90 1006.5
20260506150003 9 85 0.0 0.0 0.00 3.53 0.00 90 1006.4
20260506145503 9 0 8.0 0.0 0.00 3.53 0.00 90 1006.4
20260506145002 9 352 0.0 0.0 0.00 3.53 0.00 90 1006.4
20260506144502 9 352 0.0 0.0 0.00 3.53 0.00 90 1006.4
20260506144002 9 25 0.0 0.0 0.00 3.53 0.00 90 1006.4
20260506143502 9 16 4.8 0.0 0.00 3.53 0.00 90 1006.3
20260506143002 9 52 0.0 0.0 0.00 3.53 0.00 90 1006.3
20260506142502 9 358 0.0 0.0 0.00 3.53 0.00 90 1006.3
20260506142002 9 19 3.2 0.0 0.00 3.53 0.00 90 1006.3
20260506141502 9 6 3.2 0.0 0.00 3.51 0.00 90 1006.3
20260506141002 9 16 0.0 0.0 0.00 3.51 0.00 90 1006.3
20260506140502 9 359 0.0 0.0 0.00 3.51 0.00 90 1006.3
20260506140002 9 33 0.0 0.0 0.00 3.51 0.00 90 1006.3
20260506135002 9 54 0.0 0.0 0.00 3.51 0.00 90 1006.2
20260506134502 9 344 4.8 0.0 0.00 3.48 0.00 90 1006.2
20260506134003 10 339 0.0 0.0 0.00 3.48 0.00 90 1006.2
20260506133503 9 16 0.0 0.0 0.13 3.48 0.00 90 1006.2
20260506133003 9 356 0.0 0.0 0.13 3.48 0.00 90 1006.2
20260506132502 9 8 4.8 0.0 0.13 3.48 0.00 90 1006.3
20260506132003 9 353 0.0 0.0 0.15 3.45 0.00 90 1006.2
20260506131503 9 2 0.0 0.0 0.33 3.45 0.00 90 1006.2
20260506131003 9 356 0.0 0.0 0.38 3.43 0.00 90 1006.2
20260506130503 9 56 0.0 0.0 0.18 3.40 0.00 90 1006.2
20260506130003 9 67 0.0 0.0 0.00 3.38 0.00 90 1006.2
20260506125502 9 352 0.0 0.0 0.00 3.38 0.00 90 1006.2
20260506125002 9 40 0.0 0.0 0.10 3.35 0.00 90 1006.1
20260506124502 9 73 0.0 0.0 0.13 3.35 0.00 90 1006.0
20260506124002 9 340 0.0 0.0 0.13 3.35 0.00 90 1005.9
20260506123502 9 30 0.0 0.0 0.13 3.35 0.00 90 1005.9
20260506123002 9 64 0.0 0.0 0.15 3.33 0.00 90 1005.9
20260506122502 8 354 8.0 0.0 0.20 3.33 0.00 90 1005.8
20260506122002 8 2 0.0 0.0 0.20 3.30 0.00 90 1005.8
20260506121502 8 48 0.0 0.0 0.23 3.30 0.00 90 1005.8
20260506121002 8 0 0.0 0.0 0.36 3.28 0.00 90 1005.8
20260506120502 8 325 3.2 0.0 0.28 3.25 0.00 90 1005.8
20260506120002 8 33 0.0 0.0 0.28 3.23 0.00 90 1005.8
20260506115502 8 29 0.0 0.0 0.10 3.20 0.00 90 1005.8
20260506115003 8 12 0.0 0.0 0.00 3.17 0.00 90 1005.8
20260506114503 8 10 4.8 0.0 0.00 3.17 0.00 90 1005.7
20260506114003 8 22 0.0 0.0 0.00 3.17 0.00 90 1005.8
20260506113503 8 75 0.0 0.0 0.00 3.15 0.00 90 1005.8
20260506113003 8 8 0.0 0.0 0.00 3.15 0.00 90 1005.8
20260506112502 8 34 0.0 0.0 0.00 3.15 0.00 90 1005.7
20260506112002 8 27 0.0 0.0 0.00 3.15 0.00 90 1005.7
20260506111502 8 51 8.0 0.0 0.00 3.15 0.00 90 1005.7
20260506111002 8 20 8.0 0.0 0.00 3.15 0.00 90 1005.7
20260506110502 8 90 0.0 0.0 0.00 3.12 0.00 90 1005.7
20260506110002 8 69 0.0 0.0 0.00 3.12 0.00 90 1005.6
20260506105502 8 337 0.0 0.0 0.00 3.12 0.00 90 1005.6
20260506105002 8 30 12.9 0.0 0.00 3.12 0.00 90 1005.6
20260506104502 8 76 0.0 0.0 0.00 3.12 0.00 90 1005.6
20260506104002 8 74 8.0 0.0 0.00 3.10 0.00 90 1005.6
20260506103502 8 13 0.0 0.0 0.00 3.10 0.00 90 1005.7
20260506103002 8 46 8.0 0.0 0.00 3.10 0.00 90 1005.7
20260506102502 8 39 0.0 0.0 0.00 3.10 0.00 90 1005.6
20260506102002 8 358 12.9 0.0 0.00 3.10 0.00 90 1005.6
20260506101502 8 27 0.0 0.0 0.00 3.10 0.00 90 1005.7
20260506101002 8 327 0.0 0.0 0.00 3.10 0.00 90 1005.6
20260506100503 8 39 0.0 0.0 0.00 3.10 0.00 90 1005.6
20260506100003 8 294 0.0 0.0 0.00 3.10 0.00 90 1005.5
20260506095503 8 96 0.0 0.0 0.00 3.10 0.00 90 1005.5
20260506095003 8 51 4.8 0.0 0.00 3.10 0.00 90 1005.5
20260506094502 8 57 0.0 0.0 0.00 3.10 0.00 90 1005.4
20260506094003 8 78 9.7 0.0 0.00 3.10 0.00 90 1005.4
20260506093503 8 321 0.0 0.0 0.00 3.07 0.00 90 1005.4
20260506093003 8 14 0.0 0.0 0.00 3.07 0.00 90 1005.4
20260506092503 8 352 0.0 0.0 0.00 3.07 0.00 90 1005.4
20260506092002 7 359 0.0 0.0 0.00 3.07 0.00 90 1005.4
20260506091502 7 21 0.0 0.0 0.00 3.07 0.00 90 1005.4
20260506091002 7 315 0.0 0.0 0.00 3.07 0.00 90 1005.4
20260506090502 7 346 0.0 0.0 0.00 3.07 0.00 90 1005.3
20260506090002 7 345 22.5 0.0 0.00 3.07 0.00 90 1005.3
20260506085502 7 342 0.0 0.0 0.00 3.05 0.00 90 1005.3
20260506085002 7 358 3.2 0.0 0.00 3.05 0.00 90 1005.2
20260506084502 7 62 0.0 0.0 0.10 3.05 0.00 90 1005.3
20260506084002 7 348 0.0 0.0 0.10 3.05 0.00 90 1005.2
20260506083502 7 61 8.0 0.0 0.10 3.05 0.00 90 1005.2
20260506083002 7 19 14.5 0.0 0.10 3.02 0.00 90 1005.2
20260506082502 7 13 0.0 0.0 0.13 3.02 0.00 90 1005.1
20260506082002 7 56 9.7 0.0 0.13 3.02 0.00 90 1005.1
20260506081503 7 83 0.0 0.0 0.13 3.02 0.00 90 1005.0
20260506081003 7 14 14.5 0.0 0.15 3.00 0.00 90 1005.0
20260506080503 7 50 9.7 0.0 0.15 3.00 0.00 90 1004.9
20260506073502 7 337 0.0 0.0 0.25 2.90 0.00 90 1004.9
20260506073002 7 340 14.5 0.0 0.25 2.90 0.00 90 1004.9
20260506072502 7 35 0.0 0.0 0.25 2.87 0.00 90 1004.8
20260506072002 7 2 0.0 0.0 0.23 2.84 0.00 90 1004.8
20260506071502 7 17 3.2 0.0 0.33 2.82 0.00 90 1004.8
20260506071002 7 343 0.0 0.0 0.30 2.79 0.00 90 1004.8
20260506070502 7 359 9.7 0.0 0.36 2.77 0.00 90 1004.7
20260506062502 8 27 0.0 0.0 0.25 2.51 0.00 90 1004.6
20260506062002 8 359 0.0 0.0 0.28 2.51 0.00 90 1004.6
20260505223503 11 50 0.0 0.0 0.00 0.00 0.00 89 1006.5
20260505223002 11 50 0.0 0.0 0.00 0.00 0.00 89 1006.5
20260505222502 11 52 0.0 0.0 0.00 0.00 0.00 89 1006.6
20260505222002 11 2 0.0 0.0 0.00 0.00 0.00 89 1006.6
20260505221502 11 349 0.0 0.0 0.00 0.00 0.00 89 1006.6
20260505221002 11 31 0.0 0.0 0.00 0.00 0.00 89 1006.7
20260505220502 11 2 14.5 0.0 0.00 0.00 0.00 89 1006.7
20260505215502 11 12 0.0 0.0 0.00 0.18 0.00 89 1006.7
20260505215002 11 40 4.8 0.0 0.00 0.18 0.00 89 1006.7
20260505214502 11 43 9.7 0.0 0.00 0.18 0.00 89 1006.7
20260505214002 11 15 0.0 0.0 0.00 0.18 0.00 89 1006.8
20260505213502 11 76 0.0 0.0 0.00 0.18 0.00 89 1006.8
20260505213002 11 52 3.2 0.0 0.00 0.18 0.00 89 1006.9
20260505212502 11 58 0.0 0.0 0.00 0.18 0.00 89 1006.9
20260505212002 11 44 4.8 0.0 0.00 0.18 0.00 89 1006.9
20260505211503 11 40 0.0 0.0 0.00 0.18 0.00 89 1006.9
20260505211003 11 6 9.7 0.0 0.00 0.18 0.00 89 1006.9
20260505210503 11 61 0.0 0.0 0.00 0.18 0.00 89 1007.0
20260505210003 11 21 0.0 0.0 0.00 0.18 0.00 89 1007.0
20260505205503 11 42 0.0 0.0 0.00 0.18 0.00 89 1007.0
20260505205003 11 352 0.0 0.0 0.00 0.18 0.00 89 1007.1
20260505204503 11 23 0.0 0.0 0.00 0.18 0.00 89 1007.0
20260505204003 11 331 0.0 0.0 0.00 0.18 0.00 89 1007.0
20260505203503 11 67 0.0 0.0 0.00 0.18 0.00 89 1007.0
20260505203003 11 350 0.0 0.0 0.00 0.18 0.00 89 1006.9
20260505202502 11 5 0.0 0.0 0.00 0.18 0.00 89 1006.9
20260505202003 11 3 0.0 0.0 0.00 0.18 0.00 89 1007.0
20260505201502 11 75 0.0 0.0 0.00 0.18 0.00 89 1006.9
20260505201002 11 19 4.8 0.0 0.00 0.18 0.00 89 1006.9
20260505200502 11 79 0.0 0.0 0.00 0.18 0.00 89 1006.8
20260505200002 11 26 0.0 0.0 0.00 0.18 0.00 89 1006.8
20260505195502 11 15 0.0 0.0 0.00 0.18 0.00 89 1006.7
20260505195002 11 30 3.2 0.0 0.00 0.18 0.00 89 1006.8
20260505194502 12 70 0.0 0.0 0.00 0.18 0.00 88 1006.8
20260505194002 12 40 0.0 0.0 0.00 0.18 0.00 88 1006.8
20260505193502 12 44 0.0 0.0 0.00 0.18 0.00 88 1006.9
20260505193002 12 21 4.8 0.0 0.00 0.18 0.00 88 1006.9
20260505192503 12 352 8.0 0.0 0.00 0.18 0.00 88 1006.9
20260505192003 12 54 0.0 0.0 0.00 0.18 0.00 88 1006.9
20260505191503 12 83 0.0 0.0 0.00 0.18 0.00 88 1006.9
20260505191003 12 354 0.0 0.0 0.00 0.18 0.00 88 1006.9
20260505190503 12 344 0.0 0.0 0.00 0.18 0.00 88 1006.9
20260505190003 12 3 0.0 0.0 0.00 0.18 0.00 88 1006.8
20260505185503 12 22 0.0 0.0 0.00 0.18 0.00 88 1006.9
20260505185003 12 7 0.0 0.0 0.00 0.18 0.00 88 1006.8
20260505184503 12 44 0.0 0.0 0.00 0.18 0.00 88 1006.8
20260505184003 12 52 0.0 0.0 0.00 0.18 0.00 88 1006.9
20260505183502 12 4 0.0 0.0 0.00 0.18 0.00 88 1006.9
20260505183002 12 79 0.0 0.0 0.00 0.18 0.00 88 1006.8
20260505182502 12 10 0.0 0.0 0.00 0.18 0.00 88 1006.9
20260505182002 12 95 0.0 0.0 0.00 0.18 0.00 88 1007.0
20260505181502 12 58 3.2 0.0 0.00 0.18 0.00 88 1007.0
20260505181002 12 70 0.0 0.0 0.00 0.18 0.00 88 1007.0
20260505180502 12 46 0.0 0.0 0.00 0.18 0.00 88 1007.0
20260505180002 12 51 0.0 0.0 0.00 0.18 0.00 88 1007.0
20260505175502 12 37 0.0 0.0 0.00 0.18 0.00 88 1007.0
20260505175002 12 68 0.0 0.0 0.00 0.18 0.00 88 1007.0
20260505174502 12 31 0.0 0.0 0.00 0.18 0.00 88 1007.0
20260505174002 12 77 0.0 0.0 0.00 0.18 0.00 88 1007.0
20260505173003 12 10 0.0 0.0 0.00 0.18 0.00 88 1007.1
20260505172503 12 41 0.0 0.0 0.00 0.18 0.00 88 1007.2
20260505172003 12 352 0.0 0.0 0.00 0.18 0.00 88 1007.2
20260505171503 12 35 0.0 0.0 0.00 0.18 0.00 88 1007.1
20260505171003 12 50 9.7 0.0 0.00 0.18 0.00 88 1007.2
20260505170503 12 21 0.0 0.0 0.00 0.18 0.00 88 1007.2
20260505170003 12 326 0.0 0.0 0.00 0.18 0.00 88 1007.2